Location: Newark
(30.1000°N, 109.4667°E)
Time: 10:54:31
(UTC+00:00)

Vanguard 1 Rocket - Pass Details

Date: 26 February 2020
Orbit: 650 x 4226 km, 34.3° (Epoch: 06 April)

Event Time Altitude Azimuth Distance (km) Brightness Sun altitude
Exits shadow 21:54:24 28° 292° (WNW) 1,365 7.8 -17.4°
Maximum altitude 21:56:58 80° 16° (NNE) 689 6.7 -16.9°
Drops below altitude 10° 22:01:19 10° 104° (ESE) 2,044 10.5 -15.9°
Sets 22:03:36 0° 105° (ESE) 3,023 11.7 -15.4°
